Regional Weather Roundup
Issued by NWS Green Bay, WI

Home | Current Version | Previous Version | Graphics & Text | Print | Product List | Glossary Off
Versions: 1 2 3 4 5 6 7 8 9 10 11 12 13 14 15 16 17 18 19 20 21 22 23 24 25 26 27 28 29 30 31 32 33 34 35 36 37 38 39 40 41 42 43 44 45 46 47 48 49 50

000
ASUS43 KGRB 011259
RWRGRB

NORTH-CENTRAL AND NORTHEAST WISCONSIN REGIONAL WEATHER ROUNDUP
NATIONAL WEATHER SERVICE GREEN BAY WI
700 AM CST SUN MAR 01 2015

WIZ005-009-010>012-018-019-011400-
NORTH CENTRAL WISCONSIN

CITY           SKY/WX    TMP DP  RH WIND       PRES   REMARKS
IRONWOOD       CLOUDY    12   9  85 SW9       30.11F WCI   0
MANITOWISH WTR NOT AVBL
ARBOR VITAE    NOT AVBL
EAGLE RIVER    NOT AVBL
LAND O LAKES   NOT AVBL
RHINELANDER    CLOUDY     8   1  73 SW10      30.17F WCI  -6
PHILLIPS       NOT AVBL
ANTIGO         NOT AVBL
TOMAHAWK       NOT AVBL
MERRILL        NOT AVBL
$$

WIZ013-073-011400-
NORTHEAST WISCONSIN

CITY           SKY/WX    TMP DP  RH WIND       PRES   REMARKS
IRON MOUNTAIN  CLEAR      3  -4  72 CALM      30.19F
MARINETTE      CLEAR     10   1  67 SW8       30.28F WCI  -1
$$

WIZ017-030-035>037-045-011400-
CENTRAL WISCONSIN

CITY           SKY/WX    TMP DP  RH WIND       PRES   REMARKS
MEDFORD        NOT AVBL
WAUSAU         CLOUDY     9   4  80 SW8       30.23F HAZE    WCI  -3
MOSINEE        CLOUDY     9   5  85 S6        30.25F WCI  -1
MARSHFIELD     CLOUDY    10   5  80 SW7       30.24F HAZE    WCI  -1
WISC RAPIDS    MOCLDY     8   3  80 S5        30.29F WCI   0
STEVENS POINT  NOT AVBL
WAUPACA        NOT AVBL
SHAWANO        NOT AVBL
CLINTONVILLE   NOT AVBL
$$

WIZ038-039-048-051-011400-
FOX VALLEY

CITY           SKY/WX    TMP DP  RH WIND       PRES   REMARKS
NWS GREEN BAY  MOCLDY     9   6  88 S3        30.31F FOG
APPLETON       MOCLDY     9   3  78 SW6       30.30F WCI  -1
OSHKOSH        MOCLDY     9   6  88 S3        30.31F FOG
FOND DU LAC    MOCLDY    10   6  84 S3        30.32F FOG
$$

WIZ022-050-052-011400-
EAST CENTRAL WISCONSIN

CITY           SKY/WX    TMP DP  RH WIND       PRES   REMARKS
STURGEON BAY   PTCLDY    10   3  72 SW8       30.32F WCI  -1
MANITOWOC      NOT AVBL
SHEBOYGAN      PTCLDY    11   8  88 S5        30.32F WCI   3
$$

LMZ563-521-522-541>543-011400-
LAKESHORE

STATION/POSITION TIME  TEMP    WIND        PRES    VSBY  WAVE
                       AIR SEA DIR/SP/G                  HT/PER
                 (UTC) (F)     (DEG/KT/KT) (MB)    (MI)  (FT/S)
SHEBOYGAN LKSHOR 1200   15     250/  3/  5 1029.5F
KEWAUNEE LKSHORE 1200   12     240/  2/  6 1026.5F
NORTHPORT PIER   1200   13     220/  4/ 12 1026.4F
CHAMBERS ISLAND  1200   11     180/  4/ 10 1026.8S
MENOMINEE LKSHOR 1200   11     210/  8     1026.9F
$$


USA.gov is the U.S. government's official web portal to all federal, state and local government web resources and services.